Powrót do katalogu

SCOUT A DEB

AktywnyPO
NORAD 2140·DEBRIS·🇺🇸 United States

Wystrzelony Jan 28, 1966 z Vandenberg Space Force Base

Loading…

Następne Przeloty (najbliższe 24 godziny)

TLE

ŚwieżeSource: Space-Track

Epoka: Sep 14, 2026, 03:24 UTC

1 02140U 66005C   26257.14189182  .00000195  00000-0  22495-3 0  9990
2 02140  89.9635  50.2240 0314109 288.8149  67.9176 13.48459510970440

Śledź SCOUT A DEB w czasie rzeczywistym z AllMySat

Download on the App Store